ONEWEB-0194, 48237

Orbit data source: Space-Track

ONEWEB-0194, 48237 is a payload satellite owned by One Web (NAA) (UK) in LEO that was launched on Sun, 25 Apr 2021 UTC via a SOYUZ-2-1B launch vehicle from the Vostochny Cosmodrome (VOSTO). Payload-class satellites include a variety of spacecraft equipped with specific instruments for various scientific and technological missions. These include communications satellites like Starlink; space stations such as the ISS; scientific satellites like the Hubble; Earth observation satellites from companies like Planet Labs, Umbra, and HawkEye 360; GPS; miniature CubeSats for education and research; and military/defense satellites.

Loading next visibility...
Identifier
48237, 2021-031AD
Orbit
LEO
Country
Flag of UKUK
Related business
Manufacturer
One Web
Mission
Operational Commercial Communications
Bus & Motor
ARROW, Unknown motor
Mass
148 kg wet, ~140 kg dry
Launch date (UTC)
2021-04-25 (5 years ago)
Launch vehicle
SOYUZ-2-1B
Launch site
Vostochny Cosmodrome (VOSTO)
Object type
Payload
Rocket body
Debris
Shape & HBR
Trap Box + 2 Pan, 6.7 m
Radar Cross Section
3.464 m², Large (>1 m²)

Expand to show TLE details & history
Last TLE update: 10 hours ago

TLE from 10 hours ago
0 ONEWEB-0194
1 48237U 21031AD  25306.45106813  .00000138  00000-0  33739-3 0  9995
2 48237  87.9010 334.8773 0001870 102.5902 257.5436 13.14503634218576
Epoch: 2025-11-02T10:49Z
TLE epoch observation values (Epoch: 2025-11-02T10:49:32.286Z)
Latitude
-0.00011°
Longitude
130.52616°
Altitude
1,208.987 km
Speed
7.249 km/s
True Right ascension
22h 19m 30s
True Declination
0° 00' 00"
Sunlit
Object was in daylight at epoch
Visualization orbit readout
Latitude
Unknown
Longitude
Unknown
Altitude
Unknown
Speed
Unknown
Apparent Right ascension
Unknown
Apparent Declination
Unknown
Sunlit
N/A
Visualization observer readout
Local Sidereal Time
16:56:06
Azimuth
Unknown
Elevation
Unknown
Doppler factor
Unknown
Orbital elements
Apogee altitude
1,204.318 km
Perigee altitude
1,201.483 km
Semi-major axis
7,581.038 km
Eccentricity
0.00019
Inclination
87.901°
RAAN
334.8773°
Arg. of periapsis
102.5902°
True anomaly
257.52268°
Mean anomaly
257.5436°
Eccentric anomaly
257.53314°
Mean motion
3.28814 °/min
Orbital period
109.48 mins
BSTAR
0.00033739
Loading maneuver chart data...
Computing Atmospheric mass density...
Loading historical data...
Loading historical data...
Loading historical data...
Loading historical data...
Loading historical data...
Loading historical data...
Loading historical data...

Documentation

Showing up to 5 results
|